H1 CPF 2 NER 2021 4 13 9 103 01 glonass142 H2 2001801 9142 45358 2021 4 13 0 0 0 2021 4 16 23 45 0 900 1 1 0 0 0 1 H9 10 0 59317 0.00000 0 -3227376.968 10883016.974 -22827870.584 10 0 59317 900.00000 0 -5991615.952 11164259.340 -22124018.795 10 0 59317 1800.00000 0 -8615837.631 11630261.656 -20989870.398 10 0 59317 2700.00000 0 -11037898.568 12251486.135 -19447522.228 10 0 59317 3600.00000 0 -13203276.242 12988378.628 -17527011.009 10 0 59317 4500.00000 0 -15067099.365 13793105.429 -15265725.216 10 0 59317 5400.00000 0 -16595778.649 14611656.009 -12707673.553 10 0 59317 6300.00000 0 -17768170.845 15386222.677 -9902624.363 10 0 59317 7200.00000 0 -18576228.505 16057756.236 -6905132.979 10 0 59317 8100.00000 0 -19025109.715 16568589.304 -3773476.268 10 0 59317 9000.00000 0 -19132744.661 16865016.024 -568515.429 10 0 59317 9900.00000 0 -18928878.788 16899718.876 2647490.212 10 0 59317 10800.00000 0 -18453634.333 16633939.734 5812094.945 10 0 59317 11700.00000 0 -17755652.205 16039303.299 8863879.951 10 0 59317 12600.00000 0 -16889893.650 15099215.832 11743644.193 10 0 59317 13500.00000 0 -15915195.236 13809780.065 14395549.742 10 0 59317 14400.00000 0 -14891680.676 12180187.645 16768199.508 10 0 59317 15300.00000 0 -13878138.665 10232572.341 18815626.858 10 0 59317 16200.00000 0 -12929476.856 8001329.794 20498178.643 10 0 59317 17100.00000 0 -12094358.524 5531931.556 21783275.434 10 0 59317 18000.00000 0 -11413120.510 2879282.181 22646035.127 10 0 59317 18900.00000 0 -10916059.015 105686.689 23069748.828 10 0 59317 19800.00000 0 -10622154.366 -2721488.407 23046200.571 10 0 59317 20700.00000 0 -10538287.575 -5532364.651 22575825.222 10 0 59317 21600.00000 0 -10658981.122 -8257207.575 21667701.757 10 0 59317 22500.00000 0 -10966674.685 -10829080.316 20339381.890 10 0 59317 23400.00000 0 -11432524.422 -13186386.138 18616556.909 10 0 59317 24300.00000 0 -12017692.691 -15275195.558 16532568.414 10 0 59317 25200.00000 0 -12675074.621 -17051262.349 14127771.429 10 0 59317 26100.00000 0 -13351389.596 -18481645.156 11448761.211 10 0 59317 27000.00000 0 -13989550.238 -19545867.588 8547477.722 10 0 59317 27900.00000 0 -14531209.458 -20236568.589 5480204.206 10 0 59317 28800.00000 0 -14919378.281 -20559615.873 2306478.771 10 0 59317 29700.00000 0 -15101003.686 -20533677.636 -912060.229 10 0 59317 30600.00000 0 -15029397.051 -20189270.684 -4112872.656 10 0 59317 31500.00000 0 -14666409.620 -19567324.918 -7233735.152 10 0 59317 32400.00000 0 -13984261.764 -18717324.779 -10213955.646 10 0 59317 33300.00000 0 -12966947.419 -17695106.421 -12995559.519 10 0 59317 34200.00000 0 -11611152.742 -16560403.824 -15524423.507 10 0 59317 35100.00000 0 -9926648.695 -15374247.946 -17751334.671 10 0 59317 36000.00000 0 -7936139.549 -14196329.181 -19632953.257 10 0 59317 36900.00000 0 -5674572.140 -13082434.787 -21132660.231 10 0 59317 37800.00000 0 -3187933.647 -12082069.701 -22221272.825 10 0 59317 38700.00000 0 -531587.083 -11236361.263 -22877614.111 10 0 59317 39600.00000 0 2231786.685 -10576336.157 -23088925.572 10 0 59317 40500.00000 0 5034555.263 -10121642.028 -22851114.827 10 0 59317 41400.00000 0 7806711.288 -9879767.274 -22168833.841 10 0 59317 42300.00000 0 10478552.285 -9845791.453 -21055386.286 10 0 59317 43200.00000 0 12983352.642 -10002676.262 -19532465.964 10 0 59317 44100.00000 0 15259916.885 -10322084.185 -17629731.468 10 0 59317 45000.00000 0 17254908.226 -10765689.633 -15384225.425 10 0 59317 45900.00000 0 18924855.950 -11286926.588 -12839649.720 10 0 59317 46800.00000 0 20237758.550 -11833098.248 -10045510.884 10 0 59317 47700.00000 0 21174216.477 -12347758.918 -7056152.557 10 0 59317 48600.00000 0 21728048.187 -12773266.824 -3929694.141 10 0 59317 49500.00000 0 21906364.930 -13053399.326 -726896.674 10 0 59317 50400.00000 0 21729102.441 -13135919.431 2490021.474 10 0 59317 51300.00000 0 21228030.634 -12974984.658 5658595.581 10 0 59317 52200.00000 0 20445284.269 -12533296.075 8717328.322 10 0 59317 53100.00000 0 19431477.596 -11783896.513 11606882.282 10 0 59317 54000.00000 0 18243483.296 -10711541.827 14271228.089 10 0 59317 54900.00000 0 16941969.754 -9313587.215 16658726.007 10 0 59317 55800.00000 0 15588800.557 -7600351.026 18723120.399 10 0 59317 56700.00000 0 14244405.367 -5594940.347 20424428.478 10 0 59317 57600.00000 0 12965232.110 -3332545.027 21729706.986 10 0 59317 58500.00000 0 11801386.638 -859228.846 22613682.858 10 0 59317 59400.00000 0 10794557.870 1769732.830 23059236.613 10 0 59317 60300.00000 0 9976314.287 4491901.035 23057729.916 10 0 59317 61200.00000 0 9366842.180 7240023.027 22609171.509 10 0 59317 62100.00000 0 8974177.612 9944587.941 21722218.573 10 0 59317 63000.00000 0 8793963.671 12536483.736 20414013.351 10 0 59317 63900.00000 0 8809742.867 14949646.492 18709857.785 10 0 59317 64800.00000 0 8993772.371 17123593.333 16642731.692 10 0 59317 65700.00000 0 9308328.028 19005734.706 14252662.837 10 0 59317 66600.00000 0 9707442.714 20553370.408 11585960.095 10 0 59317 67500.00000 0 10139006.226 21735286.602 8694323.528 10 0 59317 68400.00000 0 10547138.531 22532887.293 5633847.733 10 0 59317 69300.00000 0 10874736.355 22940812.800 2463937.226 10 0 59317 70200.00000 0 11066085.420 22967019.150 -753845.421 10 0 59317 71100.00000 0 11069427.447 22632314.889 -3956976.380 10 0 59317 72000.00000 0 10839372.585 21969374.501 -7083188.667 10 0 59317 72900.00000 0 10339054.164 21021269.941 -10071687.370 10 0 59317 73800.00000 0 9541933.240 19839582.081 -12864337.729 10 0 59317 74700.00000 0 8433175.191 18482171.836 -15406802.124 10 0 59317 75600.00000 0 7010538.680 17010705.298 -17649603.233 10 0 59317 76500.00000 0 5284737.795 15488037.399 -19549092.090 10 0 59317 77400.00000 0 3279260.662 13975564.732 -21068301.716 10 0 59317 78300.00000 0 1029650.686 12530659.231 -22177669.517 10 0 59317 79200.00000 0 -1417720.771 11204290.800 -22855614.334 10 0 59317 80100.00000 0 -4007339.892 10038938.916 -23088956.930 10 0 59317 81000.00000 0 -6676624.514 9066880.748 -22873175.931 10 0 59317 81900.00000 0 -9358301.033 8308927.303 -22212494.413 10 0 59317 82800.00000 0 -11982985.401 7773660.119 -21119795.602 10 0 59317 83700.00000 0 -14481861.109 7457199.798 -19616369.500 10 0 59317 84600.00000 0 -16789342.909 7343515.181 -17731495.421 10 0 59317 85500.00000 0 -18845615.499 7405259.193 -15501868.652 10 0 59318 0.00000 0 -20598941.706 7605095.065 -12970882.549 10 0 59318 900.00000 0 -22007644.085 7897455.975 -10187779.733 10 0 59318 1800.00000 0 -23041678.300 8230662.882 -7206690.073 10 0 59318 2700.00000 0 -23683731.901 8549309.981 -4085573.284 10 0 59318 3600.00000 0 -23929805.017 8796816.284 -885087.936 10 0 59318 4500.00000 0 -23789248.347 8918034.503 2332590.917 10 0 59318 5400.00000 0 -23284258.669 8861806.331 5504981.968 10 0 59318 6300.00000 0 -22448854.010 8583355.546 8570511.860 10 0 59318 7200.00000 0 -21327372.722 8046417.420 11469709.333 10 0 59318 8100.00000 0 -19972560.481 7225014.224 14146356.104 10 0 59318 9000.00000 0 -18443326.262 6104801.667 16548572.277 10 0 59318 9900.00000 0 -16802261.938 4683929.339 18629815.586 10 0 59318 10800.00000 0 -15113029.554 2973378.575 20349775.787 10 0 59318 11700.00000 0 -13437725.450 996763.001 21675147.733 10 0 59318 12600.00000 0 -11834330.944 -1210400.615 22580269.024 10 0 59318 13500.00000 0 -10354355.290 -3601921.765 23047610.894 10 0 59318 14400.00000 0 -9040768.323 -6122615.870 23068113.584 10 0 59318 15300.00000 0 -7926308.069 -8710365.626 22641360.305 10 0 59318 16200.00000 0 -7032232.892 -11298479.870 21775586.671 10 0 59318 17100.00000 0 -6367569.398 -13818253.501 20487525.340 10 0 59318 18000.00000 0 -5928886.822 -16201623.520 18802088.431 10 0 59318 18900.00000 0 -5700606.886 -18383812.068 16751893.148 10 0 59318 19800.00000 0 -5655835.870 -20305847.669 14376638.819 10 0 59318 20700.00000 0 -5757683.987 -21916860.274 11722346.429 10 0 59318 21600.00000 0 -5961016.671 -23176054.916 8840474.328 10 0 59318 22500.00000 0 -6214564.119 -24054281.594 5786926.372 10 0 59318 23400.00000 0 -6463300.189 -24535135.471 2620971.153 10 0 59318 24300.00000 0 -6650990.013 -24615541.022 -595907.094 10 0 59318 25200.00000 0 -6722798.273 -24305795.164 -3801203.616 10 0 59318 26100.00000 0 -6627847.122 -23629067.009 -6932610.761 10 0 59318 27000.00000 0 -6321614.583 -22620375.022 -9929233.885 10 0 59318 27900.00000 0 -5768070.670 -21325084.213 -12732781.313 10 0 59318 28800.00000 0 -4941459.545 -19796986.674 -15288704.335 10 0 59318 29700.00000 0 -3827650.824 -18096046.294 -17547264.454 10 0 59318 30600.00000 0 -2425001.438 -16285902.710 -19464506.528 10 0 59318 31500.00000 0 -744690.196 -14431239.759 -21003118.385 10 0 59318 32400.00000 0 1189490.586 -12595129.132 -22133159.965 10 0 59318 33300.00000 0 3341878.981 -10836460.934 -22832647.764 10 0 59318 34200.00000 0 5666192.853 -9207569.003 -23087983.196 10 0 59318 35100.00000 0 8107233.469 -7752150.331 -22894216.748 10 0 59318 36000.00000 0 10602972.955 -6503565.372 -22255142.940 10 0 59318 36900.00000 0 13086938.949 -5483589.870 -21183224.411 10 0 59318 37800.00000 0 15490797.418 -4701669.656 -19699346.750 10 0 59318 38700.00000 0 17747026.212 -4154708.574 -17832408.923 10 0 59318 39600.00000 0 19791567.950 -3827397.295 -15618757.344 10 0 59318 40500.00000 0 21566351.717 -3693067.830 -13101474.698 10 0 59318 41400.00000 0 23021578.473 -3715036.432 -10329537.426 10 0 59318 42300.00000 0 24117674.852 -3848376.981 -7356858.555 10 0 59318 43200.00000 0 24826834.041 -4042048.706 -4241234.746 10 0 59318 44100.00000 0 25134079.751 -4241287.232 -1043218.433 10 0 59318 45000.00000 0 25037809.375 -4390156.861 2175062.483 10 0 59318 45900.00000 0 24549794.399 -4434155.299 5351113.993 10 0 59318 46800.00000 0 23694638.980 -4322759.982 8423290.469 10 0 59318 47700.00000 0 22508720.356 -4011807.870 11331990.319 10 0 59318 48600.00000 0 21038656.419 -3465607.771 14020809.509 10 0 59318 49500.00000 0 19339365.420 -2658695.784 16437630.726 10 0 59318 50400.00000 0 17471799.581 -1577159.635 18535627.363 10 0 59318 51300.00000 0 15500447.690 -219475.892 20274163.542 10 0 59318 52200.00000 0 13490710.858 1403175.558 21619573.576 10 0 59318 53100.00000 0 11506260.653 3267133.529 22545806.638 10 0 59318 54000.00000 0 9606488.973 5337005.626 23034925.129 10 0 59318 54900.00000 0 7844154.973 7566916.199 23077447.891 10 0 59318 55800.00000 0 6263325.970 9902201.371 22672532.191 10 0 59318 56700.00000 0 4897696.907 12281482.025 21827991.256 10 0 59318 57600.00000 0 3769357.274 14639030.015 20560146.942 10 0 59318 58500.00000 0 2888055.944 16907330.572 18893519.969 10 0 59318 59400.00000 0 2250993.857 19019735.661 16860363.043 10 0 59318 60300.00000 0 1843152.586 20913098.896 14500044.892 10 0 59318 61200.00000 0 1638144.738 22530282.929 11858296.221 10 0 59318 62100.00000 0 1599550.258 23822435.163 8986331.082 10 0 59318 63000.00000 0 1682682.333 24750936.695 5939859.853 10 0 59318 63900.00000 0 1836708.413 25288942.727 2778012.336 10 0 59318 64800.00000 0 2007036.614 25422449.397 -437808.499 10 0 59318 65700.00000 0 2137866.338 25150841.541 -3645119.911 10 0 59318 66600.00000 0 2174794.632 24486897.831 -6781576.433 10 0 59318 67500.00000 0 2067367.201 23456252.258 -9786186.415 10 0 59318 68400.00000 0 1771465.008 22096334.017 -12600503.762 10 0 59318 69300.00000 0 1251424.242 20454830.142 -15169770.919 10 0 59318 70200.00000 0 481798.617 18587735.235 -17443990.174 10 0 59318 71100.00000 0 -551311.946 16557070.189 -19378901.889 10 0 59318 72000.00000 0 -1849423.743 14428365.831 -20936850.097 10 0 59318 72900.00000 0 -3401359.595 12268017.091 -22087518.407 10 0 59318 73800.00000 0 -5183481.419 10140618.680 -22808521.829 10 0 59318 74700.00000 0 -7160456.475 8106393.939 -23085843.001 10 0 59318 75600.00000 0 -9286526.188 6218824.225 -22914104.512 10 0 59318 76500.00000 0 -11507225.336 4522577.631 -22296672.207 10 0 59318 77400.00000 0 -13761480.235 3051823.113 -21245587.606 10 0 59318 78300.00000 0 -15983998.757 1828999.636 -19781330.939 10 0 59318 79200.00000 0 -18107852.589 864090.784 -17932419.474 10 0 59318 80100.00000 0 -20067143.993 154433.950 -15734849.038 10 0 59318 81000.00000 0 -21799645.675 -314929.367 -13231389.705 10 0 59318 81900.00000 0 -23249303.455 -570378.415 -10470749.406 10 0 59318 82800.00000 0 -24368497.002 -648351.560 -7506622.014 10 0 59318 83700.00000 0 -25119964.107 -593557.103 -4396638.685 10 0 59318 84600.00000 0 -25478308.114 -456833.458 -1201243.194 10 0 59318 85500.00000 0 -25431025.614 -292750.329 2017486.278 10 0 59319 0.00000 0 -24979011.878 -157053.331 5197045.546 10 0 59319 900.00000 0 -24136523.140 -104061.280 8275719.462 10 0 59319 1800.00000 0 -22930598.834 -184125.876 11193778.656 10 0 59319 2700.00000 0 -21399967.340 -441263.247 13894635.899 10 0 59319 3600.00000 0 -19593483.032 -911055.869 16325938.904 10 0 59319 4500.00000 0 -17568159.605 -1618914.744 18440578.969 10 0 59319 5400.00000 0 -15386882.464 -2578774.675 20197596.558 10 0 59319 6300.00000 0 -13115895.417 -3792277.908 21562967.095 10 0 59319 7200.00000 0 -10822166.157 -5248480.736 22510252.602 10 0 59319 8100.00000 0 -8570739.498 -6924096.003 23021107.542 10 0 59319 9000.00000 0 -6422187.525 -8784262.228 23085629.869 10 0 59319 9900.00000 0 -4430261.598 -10783808.291 22702551.073 10 0 59319 10800.00000 0 -2639842.583 -12868962.236 21879261.835 10 0 59319 11700.00000 0 -1085273.291 -14979434.382 20631672.762 10 0 59319 12600.00000 0 210858.549 -17050789.336 18983912.461 10 0 59319 13500.00000 0 1238437.106 -19017009.383 16967868.148 10 0 59319 14400.00000 0 2000005.944 -20813143.560 14622576.723 10 0 59319 15300.00000 0 2510418.917 -22377932.632 11993477.100 10 0 59319 16200.00000 0 2795969.542 -23656300.843 9131537.299 10 0 59319 17100.00000 0 2893035.703 -24601610.328 6092272.243 10 0 59319 18000.00000 0 2846296.920 -25177583.479 2934670.762 10 0 59319 18900.00000 0 2706599.600 -25359812.077 -279947.793 10 0 59319 19800.00000 0 2528560.788 -25136789.118 -3489125.207 10 0 59319 20700.00000 0 2368012.185 -24510419.022 -6630480.854 10 0 59319 21600.00000 0 2279393.260 -23495983.783 -9642928.836 10 0 59319 22500.00000 0 2313204.733 -22121565.718 -12467871.510 10 0 59319 23400.00000 0 2513631.237 -20426950.202 -15050345.375 10 0 59319 24300.00000 0 2916435.003 -18462054.059 -17340096.370 10 0 59319 25200.00000 0 3547210.868 -16284945.343 -19292563.092 10 0 59319 26100.00000 0 4420077.640 -13959537.291 -20869748.280 10 0 59319 27000.00000 0 5536862.301 -11553053.039 -22040961.404 10 0 59319 27900.00000 0 6886812.646 -9133367.192 -22783417.785 10 0 59319 28800.00000 0 8446851.579 -6766335.397 -23082682.645 10 0 59319 29700.00000 0 10182363.324 -4513223.340 -22932951.593 10 0 59319 30600.00000 0 12048479.453 -2428342.149 -22337162.259 10 0 59319 31500.00000 0 13991811.384 -556988.499 -21306935.087 10 0 59319 32400.00000 0 15952557.315 1066225.422 -19862344.571 10 0 59319 33300.00000 0 17866895.644 2418583.323 -18031525.487 10 0 59319 34200.00000 0 19669564.813 3489968.151 -15850121.857 10 0 59319 35100.00000 0 21296521.537 4283029.395 -13360589.481 10 0 59319 36000.00000 0 22687566.068 4812808.964 -10611365.664 10 0 59319 36900.00000 0 23788824.302 5105842.988 -7655922.570 10 0 59319 37800.00000 0 24554982.604 5198779.060 -4551722.888 10 0 59319 38700.00000 0 24951181.573 5136568.830 -1359098.468 10 0 59319 39600.00000 0 24954489.336 4970313.637 1859925.725 10 0 59319 40500.00000 0 24554892.737 4754855.518 5042839.046 10 0 59319 41400.00000 0 23755765.122 4546216.433 8127860.116 10 0 59319 42300.00000 0 22573791.498 4398994.720 11055135.296 10 0 59319 43200.00000 0 21038354.612 4363829.364 13767897.331 10 0 59319 44100.00000 0 19190408.055 4485039.502 16213561.802 10 0 59319 45000.00000 0 17080883.829 4798538.859 18344740.404 10 0 59319 45900.00000 0 14768701.005 5330113.106 20120152.070 10 0 59319 46800.00000 0 12318458.375 6094132.650 21505415.065 10 0 59319 47700.00000 0 9797906.858 7092755.079 22473705.591 10 0 59319 48600.00000 0 7275306.121 8315651.031 23006271.088 10 0 59319 49500.00000 0 4816774.275 9740265.526 23092789.101 10 0 59319 50400.00000 0 2483739.693 11332604.583 22731565.366 10 0 59319 51300.00000 0 330599.412 13048515.308 21929567.582 10 0 59319 52200.00000 0 -1597319.921 14835407.205 20702294.197 10 0 59319 53100.00000 0 -3265415.034 16634344.137 19073480.353 10 0 59319 54000.00000 0 -4651005.316 18382420.888 17074646.038 10 0 59319 54900.00000 0 -5744029.421 20015326.254 14744494.217 10 0 59319 55800.00000 0 -6547210.785 21469986.374 12128169.659 10 0 59319 56700.00000 0 -7075685.749 22687178.343 9276391.758 10 0 59319 57600.00000 0 -7356110.302 23614004.820 6244477.232 10 0 59319 58500.00000 0 -7425283.240 24206125.631 3091271.082 10 0 59319 59400.00000 0 -7328344.045 24429652.157 -121993.896 10 0 59319 60300.00000 0 -7116621.866 24262624.064 -3332886.969 10 0 59319 61200.00000 0 -6845226.844 23696005.239 -6478995.282 10 0 59319 62100.00000 0 -6570486.261 22734155.896 -9499141.517 10 0 59319 63000.00000 0 -6347334.703 21394759.796 -12334579.146 10 0 59319 63900.00000 0 -6226769.596 19708208.598 -14930141.158 10 0 59319 64800.00000 0 -6253480.823 17716468.422 -17235319.321 10 0 59319 65700.00000 0 -6463755.731 15471475.412 -19205252.366 10 0 59319 66600.00000 0 -6883749.183 13033127.202 -20801603.356 10 0 59319 67500.00000 0 -7528192.753 10466954.044 -21993308.928 10 0 59319 68400.00000 0 -8399598.553 7841566.703 -22757185.732 10 0 59319 69300.00000 0 -9487992.123 5225987.701 -23078382.270 10 0 59319 70200.00000 0 -10771186.467 2686977.058 -22950667.515 10 0 59319 71100.00000 0 -12215586.396 286463.749 -22376550.851 10 0 59319 72000.00000 0 -13777489.907 -1920810.402 -21367231.189 10 0 59319 72900.00000 0 -15404832.364 -3889336.850 -19942376.410 10 0 59319 73800.00000 0 -17039300.574 -5584492.047 -18129737.494 10 0 59319 74700.00000 0 -18618728.084 -6983726.822 -15964604.981 10 0 59319 75600.00000 0 -20079671.216 -8077245.128 -13489118.395 10 0 59319 76500.00000 0 -21360057.574 -8868145.287 -10751442.157 10 0 59319 77400.00000 0 -22401795.603 -9372019.413 -7804824.287 10 0 59319 78300.00000 0 -23153235.375 -9616029.652 -4706556.438 10 0 59319 79200.00000 0 -23571377.022 -9637501.797 -1516855.873 10 0 59319 80100.00000 0 -23623733.819 -9482097.181 1702308.384 10 0 59319 81000.00000 0 -23289771.609 -9201641.428 4888421.928 10 0 59319 81900.00000 0 -22561864.090 -8851702.993 7979640.072 10 0 59319 82800.00000 0 -21445724.003 -8489024.700 10915987.635 10 0 59319 83700.00000 0 -19960292.283 -8168917.455 13640520.031 10 0 59319 84600.00000 0 -18137089.974 -7942726.571 16100423.269 10 0 59319 85500.00000 0 -16019060.135 -7855477.714 18248031.777 10 0 59320 0.00000 0 -13658948.112 -7943801.607 20041744.937 10 0 59320 900.00000 0 -11117287.225 -8234225.131 21446825.565 10 0 59320 1800.00000 0 -8460073.887 -8741899.320 22436065.253 10 0 59320 2700.00000 0 -5756227.454 -9469819.673 22990305.212 10 0 59320 3600.00000 0 -3074939.651 -10408569.504 23098802.980 10 0 59320 4500.00000 0 -483022.492 -11536598.919 22759438.563 10 0 59320 5400.00000 0 1957636.691 -12821027.794 21978756.365 10 0 59320 6300.00000 0 4192408.840 -14218940.235 20771842.088 10 0 59320 7200.00000 0 6175949.768 -15679117.440 19162036.560 10 0 59320 8100.00000 0 7873836.739 -17144137.580 17180491.443 10 0 59320 9000.00000 0 9263748.015 -18552756.027 14865574.437 10 0 59320 9900.00000 0 10336136.919 -19842467.081 12262134.562 10 0 59320 10800.00000 0 11094372.964 -20952140.588 9420640.728 10 0 59320 11700.00000 0 11554344.596 -21824623.120 6396209.340 10 0 59320 12600.00000 0 11743540.519 -22409194.349 3247539.224 10 0 59320 13500.00000 0 11699648.593 -22663774.967 35774.096 10 0 59320 14400.00000 0 11468731.631 -22556792.431 -3176685.467 10 0 59320 15300.00000 0 11103057.389 -22068624.874 -6327397.119 10 0 59320 16200.00000 0 10658674.950 -21192561.196 -9355094.922 10 0 59320 17100.00000 0 10192840.543 -19935235.438 -12200886.234 10 0 59320 18000.00000 0 9761402.426 -18316515.925 -14809403.271 10 0 59320 18900.00000 0 9416256.324 -16368852.659 -17129886.255 10 0 59320 19800.00000 0 9202979.900 -14136109.314 -19117176.515 10 0 59320 20700.00000 0 9158747.120 -11671928.056 -20732599.658 10 0 59320 21600.00000 0 9310611.455 -9037694.991 -21944721.408 10 0 59320 22500.00000 0 9674231.143 -6300190.829 -22729961.287 10 0 59320 23400.00000 0 10253090.955 -3529024.623 -23073052.220 10 0 59320 24300.00000 0 11038253.774 -793957.287 -22967337.262 10 0 59320 25200.00000 0 12008652.956 1837773.872 -22414897.855 10 0 59320 26100.00000 0 13131913.426 4304018.502 -21426511.283 10 0 59320 27000.00000 0 14365667.246 6550058.200 -20021438.335 10 0 59320 27900.00000 0 15659308.420 8530636.226 -18227045.358 10 0 59320 28800.00000 0 16956113.110 10211588.129 -16078268.193 10 0 59320 29700.00000 0 18195636.035 11571006.419 -13616928.502 10 0 59320 30600.00000 0 19316282.023 12599892.003 -10890915.853 10 0 59320 31500.00000 0 20257944.245 13302266.547 -7953251.774 10 0 59320 32400.00000 0 20964597.785 13694742.814 -4861054.201 10 0 59320 33300.00000 0 21386739.058 13805572.705 -1674422.830 10 0 59320 34200.00000 0 21483568.094 13673214.746 1544732.424 10 0 59320 35100.00000 0 21224821.580 13344482.945 4733896.682 10 0 59320 36000.00000 0 20592179.410 12872356.479 7831165.223 10 0 59320 36900.00000 0 19580185.472 12313543.717 10776444.490 10 0 59320 37800.00000 0 18196643.967 11725904.189 13512615.564 10 0 59320 38700.00000 0 16462474.550 11165837.790 15986637.639 10 0 59320 39600.00000 0 14411032.273 10685751.466 18150570.349 10 0 59320 40500.00000 0 12086920.549 10331710.056 19962495.764 10 0 59320 41400.00000 0 9544346.230 10141369.912 21387322.976 10 0 59320 42300.00000 0 6845084.852 10142281.810 22397460.498 10 0 59320 43200.00000 0 4056139.801 10350634.091 22973344.443 10 0 59320 44100.00000 0 1247191.608 10770488.546 23103813.021 10 0 59320 45000.00000 0 -1512057.901 11393541.023 22786320.735 10 0 59320 45900.00000 0 -4154537.836 12199417.033 22026988.449 10 0 59320 46800.00000 0 -6618348.239 13156490.439 20840488.359 10 0 59320 47700.00000 0 -8849083.758 14223191.689 19249765.751 10 0 59320 48600.00000 0 -10801845.758 15349751.634 17285602.280 10 0 59320 49500.00000 0 -12442860.327 16480308.846 14986028.310 10 0 59320 50400.00000 0 -13750635.547 17555292.882 12395594.748 10 0 59320 51300.00000 0 -14716610.448 18513984.168 9564517.437 10 0 59320 52200.00000 0 -15345268.955 19297143.342 6547709.742 10 0 59320 53100.00000 0 -15653714.333 19849599.513 3403721.511 10 0 59320 54000.00000 0 -15670722.286 20122688.138 193604.525 10 0 59320 54900.00000 0 -15435312.695 20076435.054 -3020273.620 10 0 59320 55800.00000 0 -14994900.609 19681393.689 -6175443.919 10 0 59320 56700.00000 0 -14403104.729 18920056.640 -9210554.560 10 0 59320 57600.00000 0 -13717306.432 17787780.583 -12066569.429 10 0 59320 58500.00000 0 -12996063.173 16293184.255 -14687922.436 10 0 59320 59400.00000 0 -12296486.203 14458001.185 -17023604.513 10 0 59320 60300.00000 0 -11671694.192 12316392.109 -19028161.566 10 0 59320 61200.00000 0 -11168451.022 9913744.819 -20662583.433 10 0 59320 62100.00000 0 -10825088.123 7305010.756 -21895066.292 10 0 59320 63000.00000 0 -10669799.580 4552647.129 -22701633.589 10 0 59320 63900.00000 0 -10719382.332 1724250.055 -23066603.376 10 0 59320 64800.00000 0 -10978474.845 -1110023.056 -22982893.136 10 0 59320 65700.00000 0 -11439326.502 -3880134.862 -22452156.338 10 0 59320 66600.00000 0 -12082107.453 -6518841.837 -21484748.220 10 0 59320 67500.00000 0 -12875745.808 -8964249.578 -20099521.653 10 0 59320 68400.00000 0 -13779256.804 -11162143.851 -18323457.138 10 0 59320 69300.00000 0 -14743507.717 -13068000.904 -16191134.252 10 0 59320 70200.00000 0 -15713343.914 -14648594.163 -13744054.924 10 0 59320 71100.00000 0 -16629986.108 -15883131.364 -11029831.766 10 0 59320 72000.00000 0 -17433597.375 -16763875.802 -8101257.525 10 0 59320 72900.00000 0 -18065911.308 -17296227.209 -5015274.003 10 0 59320 73800.00000 0 -18472810.024 -17498260.442 -1831860.829 10 0 59320 74700.00000 0 -18606742.940 -17399742.956 1387133.781 10 0 59320 75600.00000 0 -18428883.947 -17040674.013 4579197.109 10 0 59320 76500.00000 0 -17910935.795 -16469408.565 7682367.091 10 0 59320 77400.00000 0 -17036505.457 -15740446.109 10636434.510 10 0 59320 78300.00000 0 -15801992.393 -14911978.647 13384108.796 10 0 59320 79200.00000 0 -14216952.198 -14043301.726 15872124.908 10 0 59320 80100.00000 0 -12303920.126 -13192197.877 18052270.094 10 0 59320 81000.00000 0 -10097701.537 -12412402.591 19882311.225 10 0 59320 81900.00000 0 -7644158.324 -11751259.052 21326805.536 10 0 59320 82800.00000 0 -4998541.330 -11247659.721 22357779.876 10 0 59320 83700.00000 0 -2223437.218 -10930360.554 22955266.273 10 0 59320 84600.00000 0 613586.008 -10816738.018 23107684.238 10 0 59320 85500.00000 0 3442538.252 -10912040.562 22812063.016 99